User: anonymous   Login
Location: Br�ttisellen
(47.4227°N, 8.6287°E)
Time: 12:03:27
(UTC+00:00)
Language:

Cosmos 1821 Rocket - Orbit

View from above orbital plane
View from above orbital plane
View from above satellite
View from above satellite

Ground track
Ground track

The orbit data is extracted from the following two-line orbital elements,

1 17526U 87017B   20190.78890824 +.00000040 +00000-0 +24893-4 0  9996
2 17526 082.9028 284.9804 0041665 073.3839 287.1887 13.76879278659887
Epoch (UTC): 08 July 2020 18:56:01
Eccentricity: 0.0041665
inclination: 82.9028°
perigee height: 944 km
apogee height: 1005 km
right ascension of ascending node: 284.9804°
argument of perigee: 73.3839°
revolutions per day: 13.76879278
mean anomaly at epoch: 287.1887°
orbit number at epoch: 65988

The dashed part of the orbit path shows where the satellite is in the earth's shadow,  

DLR